Home > Time Zones > World Clock > Weather > Peru > Lima > Past weeks

Flag for Peru Weather past 2 weeks in Lima, Lima, Peru

Now
66 °F

Partly sunny.


Feels Like: 66 °F
Forecast: 66 / 74 °F
Wind: 3 mph from South

Location: Lima-Callao / Aerop. Internacional Jorgechavez

Current Time: Dec 27, 2014 at 6:32:38 AM

Latest Report: Dec 27, 2014 at 6:00 AM


Visibility: N/A

Pressure: 29.86 "Hg

Humidity: 88%

Dew point: 63 °F

Location of LimaLocation

Historic Weather in Lima — Graph

°F

Lima temperature yesterday

Maximum temperature yesterday: 75 °F (at 12:00 PM)
Minimum temperature yesterday: 66 °F (at 1:00 AM)
Average temperature yesterday: 70 °F

Past Weeks' High & Low Weather Summary

 TemperatureHumidityPressure
High77 °F (Dec 20, 1:00 PM)94% (Dec 12, 5:00 AM)30.07 "Hg (Dec 12, 5:00 AM)
Low64 °F (Dec 14, 4:00 AM)57% (Dec 20, 2:00 PM)29.80 "Hg (Dec 27, 3:00 AM)
Average69 °F81%29.93 "Hg
* Reported Dec 12 5:00 AM — Dec 27 5:00 AM, Lima, Weather by CustomWeather, © 2014

Note: Actual official high and low records may vary slightly from our data, if they occured in-between our weather recording intervals... More about our weather records

Advertising

Lima weather history for previous 24 hours

 ConditionsComfort  
Time TempWeatherWind HumidityBarometerVisibility
5:00 AM
Dec 27
66 °FPassing clouds.3 mph88%29.83 "HgN/A
4:00 AM64 °FPassing clouds.3 mph94%29.83 "HgN/A
3:00 AM66 °FClear.5 mph88%29.80 "Hg10 mi
2:00 AM66 °FClear.9 mph88%29.83 "Hg10 mi
1:00 AM66 °FClear.10 mph88%29.86 "Hg10 mi
12:00 AM68 °FClear.10 mph83%29.86 "Hg10 mi
11:00 PM
Dec 26
68 °FPartly cloudy.15 mph83%29.92 "HgN/A
10:00 PM68 °FClear.10 mph83%29.92 "Hg10 mi
9:00 PM68 °FClear.14 mph83%29.92 "Hg10 mi
8:00 PM68 °FClear.10 mph83%29.89 "Hg10 mi
7:00 PM68 °FClear.13 mph83%29.86 "Hg10 mi
6:00 PM70 °FSunny.15 mph83%29.86 "Hg10 mi
5:00 PM70 °FSunny.15 mph83%29.83 "Hg10 mi
4:00 PM73 °FSunny.17 mph69%29.83 "Hg10 mi
3:00 PM73 °FSunny.15 mph69%29.86 "Hg10 mi
2:00 PM75 °FSunny.13 mph65%29.86 "Hg10 mi
1:00 PM75 °FSunny.12 mph65%29.89 "Hg10 mi
12:00 PM75 °FPassing clouds.9 mph69%29.89 "HgN/A
11:00 AM73 °FSunny.12 mph69%29.92 "Hg10 mi
10:00 AM72 °FPassing clouds.8 mph73%29.92 "HgN/A
9:00 AM72 °FSunny.9 mph73%29.92 "Hg10 mi
8:00 AM70 °FSunny.6 mph78%29.92 "Hg10 mi
7:00 AM66 °FSunny.7 mph88%29.89 "Hg10 mi
6:00 AM66 °FSunny.6 mph88%29.89 "Hg10 mi
Weather by CustomWeather, © 2014

See weather overviewHow to use our weather pages